WB5MTX Weather Reports


time (UTC)temp
C
wind
direction
speed
KPH
gust
KPH
rain 1hr
cm
rain 24hr
cm
rain mn
cm
humidity
%
barometer
mb
20260906224605 37 88 0.0 9.7 0.00 0.00 0.00 39 1010.7
20260906223102 37 0 0.0 16.1 0.00 0.00 0.00 39 1010.6
20260906221559 37 85 1.6 12.9 0.00 0.00 0.00 38 1010.9
20260906214600 37 93 1.6 11.3 0.00 0.00 0.00 39 1011.1
20260906213057 37 107 0.0 16.1 0.00 0.00 0.00 39 1011.3
20260906211601 36 110 0.0 16.1 0.00 0.00 0.00 40 1011.4
20260906210122 37 119 1.6 12.9 0.00 0.00 0.00 40 1011.5
20260906204603 37 0 0.0 11.3 0.00 0.00 0.00 40 1011.6
20260906203102 37 0 0.0 12.9 0.00 0.00 0.00 40 1011.8
20260906201604 37 96 1.6 12.9 0.00 0.00 0.00 39 1012.0
20260906200142 37 89 3.2 17.7 0.00 0.00 0.00 41 1012.0
20260906194606 37 0 0.0 17.7 0.00 0.00 0.00 40 1012.1
20260906193101 37 0 0.0 11.3 0.00 0.00 0.00 43 1012.3
20260906191604 36 119 0.0 11.3 0.00 0.00 0.00 42 1012.8
20260906190109 36 0 3.2 17.7 0.00 0.00 0.00 44 1012.8
20260906184630 36 0 1.6 12.9 0.00 0.00 0.00 44 1013.0
20260906183102 36 146 0.0 8.0 0.00 0.00 0.00 44 1013.1
20260906181559 35 114 1.6 17.7 0.00 0.00 0.00 46 1013.3
20260906174601 35 119 3.2 16.1 0.00 0.00 0.00 47 1013.7
20260906173106 35 114 3.2 16.1 0.00 0.00 0.00 48 1014.0
20260906171605 35 119 0.0 16.1 0.00 0.00 0.00 48 1014.2
20260906170112 34 117 0.0 12.9 0.00 0.00 0.00 49 1014.5
20260906164604 34 0 1.6 9.7 0.00 0.00 0.00 51 1014.6
20260906163105 34 124 0.0 9.7 0.00 0.00 0.00 54 1014.6
20260906161606 33 0 0.0 11.3 0.00 0.00 0.00 56 1014.5
20260906160104 33 0 1.6 11.3 0.00 0.00 0.00 57 1014.5
20260906154601 32 130 0.0 6.4 0.00 0.00 0.00 60 1014.6
20260906153058 31 0 0.0 6.4 0.00 0.00 0.00 64 1014.5
20260906151602 30 127 1.6 8.0 0.00 0.00 0.00 66 1014.4
20260906150105 30 0 0.0 9.7 0.00 0.00 0.00 68 1014.3
20260906144602 29 0 0.0 0.0 0.00 0.00 0.00 70 1014.2
20260906143104 28 0 0.0 4.8 0.00 0.00 0.00 71 1014.3
20260906141611 28 0 0.0 0.0 0.00 0.00 0.00 72 1014.4
20260906140108 28 0 0.0 3.2 0.00 0.00 0.00 74 1014.4
20260906134617 27 0 0.0 0.0 0.00 0.00 0.00 75 1014.1
20260906133106 26 0 0.0 3.2 0.00 0.00 0.00 78 1014.1
20260906131602 25 0 0.0 0.0 0.00 0.00 0.00 81 1014.1
20260906130147 25 0 0.0 0.0 0.00 0.00 0.00 82 1014.0
20260906124609 25 0 0.0 0.0 0.00 0.00 0.00 82 1013.9
20260906123103 24 0 0.0 0.0 0.00 0.00 0.00 83 1013.9
20260906121610 24 0 0.0 0.0 0.00 0.00 0.00 84 1013.6
20260906120110 24 0 0.0 0.0 0.00 0.00 0.00 83 1013.4
20260906114607 24 0 0.0 0.0 0.00 0.00 0.00 83 1013.3
20260906113108 24 0 0.0 0.0 0.00 0.00 0.00 83 1013.3
20260906111602 25 0 0.0 0.0 0.00 0.00 0.00 83 1013.2
20260906110056 25 0 0.0 0.0 0.00 0.00 0.00 82 1013.0
20260906104558 25 0 0.0 0.0 0.00 0.00 0.00 81 1012.9
20260906103105 25 0 0.0 0.0 0.00 0.00 0.00 81 1012.8
20260906101604 25 0 0.0 0.0 0.00 0.00 0.00 80 1012.9
20260906094602 25 0 0.0 0.0 0.00 0.00 0.00 79 1012.4
20260906093059 25 0 0.0 0.0 0.00 0.00 0.00 78 1012.3
20260906091601 25 0 0.0 0.0 0.00 0.00 0.00 78 1012.4
20260906084603 26 0 0.0 0.0 0.00 0.00 0.00 77 1012.2
20260906083104 26 0 0.0 0.0 0.00 0.00 0.00 76 1012.2
20260906081600 26 0 0.0 0.0 0.00 0.00 0.00 76 1012.2
20260906080103 26 0 0.0 0.0 0.00 0.00 0.00 75 1012.5
20260906074559 26 0 0.0 0.0 0.00 0.00 0.00 75 1012.6
20260906073101 27 0 0.0 6.4 0.00 0.00 0.00 74 1012.5
20260906071603 27 0 0.0 4.8 0.00 0.00 0.00 74 1012.5
20260906070103 27 0 0.0 0.0 0.00 0.00 0.00 74 1012.5
20260906064600 27 178 0.0 1.6 0.00 0.00 0.00 74 1012.7
20260906063101 27 0 0.0 0.0 0.00 0.00 0.00 73 1012.8
20260906061623 27 0 0.0 0.0 0.00 0.00 0.00 72 1012.9
20260906060121 27 0 0.0 0.0 0.00 0.00 0.00 71 1013.0
20260906054600 28 0 0.0 0.0 0.00 0.00 0.00 70 1012.9
20260906053102 28 0 0.0 0.0 0.00 0.00 0.00 70 1012.8
20260906051608 28 0 0.0 1.6 0.00 0.00 0.00 70 1013.0
20260906050107 28 0 0.0 4.8 0.00 0.00 0.00 69 1012.9
20260906044600 28 170 0.0 1.6 0.00 0.00 0.00 69 1012.8
20260906043105 28 0 0.0 0.0 0.00 0.00 0.00 69 1012.6
20260906041604 29 0 0.0 0.0 0.00 0.00 0.00 69 1012.6
20260906040101 29 0 0.0 0.0 0.00 0.00 0.00 67 1012.5
20260906034605 30 0 0.0 3.2 0.00 0.00 0.00 67 1012.5
20260906033101 30 0 0.0 6.4 0.00 0.00 0.00 65 1012.8
20260906031603 30 0 0.0 6.4 0.00 0.00 0.00 64 1012.9
20260906030109 30 0 0.0 9.7 0.00 0.00 0.00 63 1012.7
20260906024603 31 0 1.6 11.3 0.00 0.00 0.00 60 1012.5
20260906023110 31 102 0.0 14.5 0.00 0.00 0.00 58 1012.2
20260906021608 31 111 1.6 16.1 0.00 0.00 0.00 56 1012.0
20260906020105 32 81 1.6 16.1 0.00 0.00 0.00 54 1011.8
20260906014607 32 102 3.2 22.5 0.00 0.00 0.00 51 1011.6
20260906013103 33 0 0.0 11.3 0.00 0.00 0.00 49 1011.1
20260906011606 33 0 1.6 11.3 0.00 0.00 0.00 46 1010.9
20260906010108 34 0 0.0 9.7 0.00 0.00 0.00 45 1010.8
20260906004605 35 0 0.0 6.4 0.00 0.00 0.00 42 1010.8
20260906003059 35 96 0.0 4.8 0.00 0.00 0.00 40 1010.7
20260906001605 36 0 0.0 3.2 0.00 0.00 0.00 40 1010.6
20260906000106 36 0 0.0 9.7 0.00 0.00 0.00 39 1010.6
20260905234602 36 0 0.0 11.3 0.00 0.00 0.00 38 1010.6
20260905233116 36 103 1.6 14.5 0.00 0.00 0.00 39 1010.4
20260905231557 36 0 0.0 12.9 0.00 0.00 0.00 38 1010.5
20260905230103 37 0 0.0 9.7 0.00 0.00 0.00 37 1010.4